FENGYUN 1C DEB

Satellite information

Favourite Embed

Satellite Type and Status

DEBRISIN ORBIT

Key statistics

Satellite FENGYUN 1C DEB at a glance.

Uptime

9616

Days in orbit

Revolutions

≈ 14.0

Per day

Orbit

SSO

Sun Synchronous Orbit

Inclination

98.9

Latest

Satellite identification and parameters

Extended collection of information and parameters for FENGYUN 1C DEB.

Object identification

Identified? True

Debris? True

Object name: FENGYUN 1C DEB

International designator: 1999-025EXC

Object number (NORAD): 40696

Object ID (CCSDS): 40696

Country: PEOPLES REPUBLIC OF CHINA (PRC)

Current information (Y/N): Y

RCS size: SMALL

Orbital parameters

Period: 103.103 minutes

Inclination: 98.9466 deg

SMA: 7283.499 km

Apoapsis: 962.849 km

Periapsis: 847.878 km

RAAN: 229.2985 deg

Eccentricy: 0.00789259

Argument of periapsis: 291.9424 deg

Mean anomaly: 67.3363 deg

Mean motion: 13.96666423 rev/day

Mean motion (dot): 0.00000412 rev/day2

B* drag term: 0.00032057943 1/REarth

Two-line elements (TLE)

Creation date: Aug. 28, 2025, 2:53 a.m.

Reference frame: TEME

Reference center: EARTH

Epoch: Aug. 27, 2025, 4:29 p.m. UTC

TLE line 0: 0 FENGYUN 1C DEB

TLE line 1: 1 40696U 99025EXC 25239.68730132 .00000412 00000-0 32058-3 0 9999

TLE line 2: 2 40696 98.9466 229.2985 0078926 291.9424 67.3363 13.96666423541856

Live tracking on map

Real-time ground track for satellite FENGYUN 1C DEB.

In-orbit conjunctions

A list of the most updated potential collisions computed for object FENGYUN 1C DEB.

Target Orbit TCA Probability of collision Miss distance Type
COSMOS 1275 DEB LEO 2025-05-07 18:30:40 0.0001429785 201.0 (m) DEBRIS
FENGYUN 1C DEB SSO 2024-11-14 04:52:16 0.0001365113 781.0 (m) DEBRIS

Associated space launch

Chinese polar orbiting meteorological satellite

FENGYUN 1C DEB was lifted into orbit during the mission ‘Long March 4B | Feng Yun 1C’, on board a Long March 4B space rocket.

The launch took place on May 10, 1999, 1:33 a.m. from Launch Complex 7.

For more information about the launch, click the button.

Launch to space Long March 4B | Feng Yun 1C
Long March 4B | Feng Yun 1C

Agency: N/A

Status: Launch Successful

Launch date: May 10, 1999, 1:33 a.m. UTC

Rocket: Long March 4B

Launch pad: Launch Complex 7

Location: Taiyuan Satellite Launch Center, People's Republic of China

...

Latest news about this satellite

There are no fresh news available about this satellite. Check back as we update our databases every day.


Newsletter sign-up

Weekly statistics, charts and insights to help you stay on top of the space industry.